• In Netherlands
  • List of Countries
  • For 7 days
  • Water Temperature
  • Satellite Maps
  • Weather Map
  • Weather Widgets
  • user-avatar
    Login

    Hourly Weather A'ali

    Today, 24 May, Thursday

    Time Temperature Precipitation Wind Pressure Humidity
    00:00 +35°C° 0 mm 2 mps 753 mmHg 24%
    01:00 +33°C° 0 mm 1 mps 753 mmHg 25%
    02:00 +33°C° 0 mm 1 mps 753 mmHg 27%
    03:00 +29°C° 0 mm 0 mps 753 mmHg 32%
    04:00 +32°C° 0 mm 1 mps 753 mmHg 30%
    05:00 +32°C° 0 mm 1 mps 753 mmHg 29%
    06:00 +33°C° 0 mm 1 mps 753 mmHg 27%
    07:00 +34°C° 0 mm 1 mps 753 mmHg 25%
    08:00 +35°C° 0 mm 1 mps 753 mmHg 23%
    09:00 +36°C° 0 mm 1 mps 754 mmHg 21%
    10:00 +37°C° 0 mm 1 mps 754 mmHg 21%
    11:00 +39°C° 0 mm 2 mps 753 mmHg 20%
    12:00 +39°C° 0 mm 3 mps 753 mmHg 20%
    13:00 +40°C° 0 mm 2 mps 753 mmHg 19%
    14:00 +40°C° 0 mm 2 mps 752 mmHg 17%
    15:00 +41°C° 0 mm 2 mps 752 mmHg 16%
    16:00 +40°C° 0 mm 2 mps 752 mmHg 17%
    17:00 +40°C° 0 mm 2 mps 752 mmHg 17%
    18:00 +39°C° 0 mm 3 mps 752 mmHg 17%
    19:00 +38°C° 0 mm 3 mps 752 mmHg 18%
    20:00 +38°C° 0 mm 3 mps 752 mmHg 19%
    21:00 +37°C° 0 mm 3 mps 752 mmHg 20%
    22:00 +37°C° 0 mm 3 mps 752 mmHg 21%
    23:00 +36°C° 0 mm 3 mps 751 mmHg 22%

    Tomorrow, 25 May, Friday

    Time Temperature Precipitation Wind Pressure Humidity
    00:00 +36°C° 0 mm 3 mps 751 mmHg 23%
    01:00 +35°C° 0 mm 3 mps 751 mmHg 25%
    02:00 +35°C° 0 mm 4 mps 751 mmHg 27%
    03:00 +34°C° 0 mm 4 mps 751 mmHg 29%
    04:00 +34°C° 0 mm 4 mps 751 mmHg 31%
    05:00 +34°C° 0 mm 4 mps 751 mmHg 33%
    06:00 +34°C° 0 mm 4 mps 751 mmHg 36%
    07:00 +35°C° 0 mm 4 mps 752 mmHg 32%
    08:00 +36°C° 0 mm 4 mps 752 mmHg 28%
    09:00 +37°C° 0 mm 4 mps 752 mmHg 24%
    10:00 +38°C° 0 mm 3 mps 752 mmHg 23%
    11:00 +39°C° 0 mm 3 mps 752 mmHg 22%
    12:00 +40°C° 0 mm 2 mps 752 mmHg 20%
    13:00 +40°C° 0 mm 3 mps 751 mmHg 19%
    14:00 +42°C° 0 mm 4 mps 751 mmHg 18%
    15:00 +42°C° 0 mm 5 mps 751 mmHg 17%
    16:00 +41°C° 0 mm 5 mps 751 mmHg 21%
    17:00 +40°C° 0 mm 6 mps 751 mmHg 25%
    18:00 +39°C° 0 mm 7 mps 751 mmHg 29%
    19:00 +38°C° 0 mm 7 mps 751 mmHg 31%
    20:00 +36°C° 0 mm 7 mps 751 mmHg 34%
    21:00 +35°C° 0 mm 7 mps 751 mmHg 36%
    22:00 +35°C° 0 mm 6 mps 751 mmHg 37%
    23:00 +35°C° 0 mm 5 mps 751 mmHg 38%

    Day after tomorrow, 26 May, Saturday

    Time Temperature Precipitation Wind Pressure Humidity
    00:00 +34°C° 0 mm 4 mps 751 mmHg 39%
    01:00 +34°C° 0 mm 3 mps 751 mmHg 40%
    02:00 +32°C° 0 mm 2 mps 751 mmHg 41%
    03:00 +32°C° 0 mm 1 mps 751 mmHg 41%
    04:00 +32°C° 0 mm 1 mps 752 mmHg 40%
    05:00 +32°C° 0 mm 1 mps 752 mmHg 38%
    06:00 +33°C° 0 mm 1 mps 753 mmHg 37%
    07:00 +34°C° 0 mm 1 mps 753 mmHg 35%
    08:00 +34°C° 0 mm 1 mps 753 mmHg 33%
    09:00 +35°C° 0 mm 1 mps 753 mmHg 31%
    10:00 +36°C° 0 mm 1 mps 753 mmHg 30%
    11:00 +38°C° 0 mm 2 mps 753 mmHg 29%
    12:00 +38°C° 0 mm 2 mps 753 mmHg 28%
    13:00 +38°C° 0 mm 3 mps 753 mmHg 28%
    14:00 +39°C° 0 mm 3 mps 752 mmHg 27%
    15:00 +39°C° 0 mm 3 mps 752 mmHg 26%
    16:00 +38°C° 0 mm 4 mps 752 mmHg 28%
    17:00 +37°C° 0 mm 4 mps 752 mmHg 29%
    18:00 +36°C° 0 mm 4 mps 752 mmHg 31%
    19:00 +36°C° 0 mm 4 mps 752 mmHg 32%
    20:00 +36°C° 0 mm 3 mps 752 mmHg 33%
    21:00 +35°C° 0 mm 3 mps 753 mmHg 35%
    22:00 +35°C° 0 mm 2 mps 753 mmHg 36%
    23:00 +35°C° 0 mm 2 mps 752 mmHg 37%

    27 May, Sunday

    Time Temperature Precipitation Wind Pressure Humidity
    00:00 +34°C° 0 mm 2 mps 752 mmHg 38%
    01:00 +33°C° 0 mm 1 mps 752 mmHg 39%
    02:00 +33°C° 0 mm 1 mps 752 mmHg 41%
    03:00 +33°C° 0 mm 1 mps 752 mmHg 43%
    04:00 +33°C° 0 mm 1 mps 752 mmHg 43%
    05:00 +33°C° 0 mm 1 mps 752 mmHg 43%
    06:00 +33°C° 0 mm 1 mps 753 mmHg 42%
    07:00 +34°C° 0 mm 1 mps 753 mmHg 39%
    08:00 +35°C° 0 mm 1 mps 753 mmHg 36%
    09:00 +36°C° 0 mm 1 mps 753 mmHg 33%
    10:00 +37°C° 0 mm 1 mps 753 mmHg 29%
    11:00 +39°C° 0 mm 2 mps 753 mmHg 26%
    12:00 +40°C° 0 mm 2 mps 753 mmHg 22%
    13:00 +39°C° 0 mm 3 mps 753 mmHg 21%
    14:00 +40°C° 0 mm 4 mps 752 mmHg 21%
    15:00 +40°C° 0 mm 4 mps 752 mmHg 20%
    16:00 +40°C° 0 mm 4 mps 752 mmHg 21%
    17:00 +38°C° 0 mm 4 mps 752 mmHg 23%
    18:00 +37°C° 0 mm 3 mps 752 mmHg 25%
    19:00 +37°C° 0 mm 3 mps 752 mmHg 27%
    20:00 +36°C° 0 mm 3 mps 752 mmHg 30%
    21:00 +36°C° 0 mm 3 mps 753 mmHg 32%
    22:00 +36°C° 0 mm 3 mps 752 mmHg 33%
    23:00 +35°C° 0 mm 4 mps 752 mmHg 34%

    28 May, Monday

    Time Temperature Precipitation Wind Pressure Humidity
    00:00 +35°C° 0 mm 4 mps 752 mmHg 35%
    01:00 +35°C° 0 mm 3 mps 752 mmHg 36%
    02:00 +35°C° 0 mm 3 mps 751 mmHg 37%
    03:00 +34°C° 0 mm 2 mps 751 mmHg 39%
    04:00 +35°C° 0 mm 2 mps 752 mmHg 38%
    05:00 +35°C° 0 mm 2 mps 752 mmHg 37%
    06:00 +35°C° 0 mm 2 mps 752 mmHg 36%
    07:00 +36°C° 0 mm 2 mps 753 mmHg 33%
    08:00 +35°C° 0 mm 1 mps 753 mmHg 31%
    09:00 +36°C° 0 mm 1 mps 753 mmHg 28%
    10:00 +37°C° 0 mm 1 mps 753 mmHg 26%
    11:00 +39°C° 0 mm 2 mps 753 mmHg 24%
    12:00 +40°C° 0 mm 2 mps 752 mmHg 22%
    13:00 +40°C° 0 mm 3 mps 752 mmHg 22%
    14:00 +40°C° 0 mm 3 mps 751 mmHg 22%
    15:00 +41°C° 0 mm 4 mps 751 mmHg 23%
    16:00 +40°C° 0 mm 4 mps 751 mmHg 26%
    17:00 +40°C° 0 mm 4 mps 751 mmHg 29%
    18:00 +39°C° 0 mm 5 mps 751 mmHg 33%
    19:00 +37°C° 0 mm 4 mps 751 mmHg 37%
    20:00 +37°C° 0 mm 4 mps 752 mmHg 42%
    21:00 +36°C° 0 mm 4 mps 752 mmHg 46%
    22:00 +36°C° 0 mm 4 mps 751 mmHg 47%
    23:00 +36°C° 0 mm 3 mps 751 mmHg 48%

    29 May, Tuesday

    Time Temperature Precipitation Wind Pressure Humidity
    00:00 +35°C° 0 mm 3 mps 751 mmHg 50%
    01:00 +35°C° 0 mm 2 mps 751 mmHg 50%
    02:00 +35°C° 0 mm 2 mps 751 mmHg 51%
    03:00 +34°C° 0 mm 1 mps 750 mmHg 52%
    04:00 +34°C° 0 mm 1 mps 751 mmHg 51%
    05:00 +34°C° 0 mm 1 mps 751 mmHg 51%
    06:00 +34°C° 0 mm 1 mps 751 mmHg 50%
    07:00 +35°C° 0 mm 1 mps 752 mmHg 47%
    08:00 +36°C° 0 mm 1 mps 752 mmHg 43%
    09:00 +38°C° 0 mm 2 mps 752 mmHg 40%
    10:00 +38°C° 0 mm 2 mps 752 mmHg 38%
    11:00 +39°C° 0 mm 2 mps 751 mmHg 37%
    12:00 +40°C° 0 mm 2 mps 751 mmHg 35%
    13:00 +40°C° 0 mm 2 mps 750 mmHg 34%
    14:00 +42°C° 0 mm 3 mps 750 mmHg 33%
    15:00 +42°C° 0 mm 3 mps 750 mmHg 32%
    16:00 +40°C° 0 mm 3 mps 750 mmHg 34%
    17:00 +40°C° 0 mm 3 mps 750 mmHg 36%
    18:00 +40°C° 0 mm 4 mps 750 mmHg 38%
    19:00 +38°C° 0 mm 4 mps 750 mmHg 39%
    20:00 +38°C° 0 mm 4 mps 750 mmHg 41%
    21:00 +37°C° 0 mm 4 mps 751 mmHg 43%
    22:00 +37°C° 0 mm 3 mps 750 mmHg 44%
    23:00 +36°C° 0 mm 3 mps 750 mmHg 44%
    Show more